SCP
0 0 0 0 0 0 0 0 0 0 0 0 0 0 0 0 0 0 0 0 0 0
0 0 0 0 0 0 0 0 0 0 0 0 0 0 0 0 0 0 0 0 0 0
0 0 0 0 0 0 0 0 0 0 0 0 0 0 0 0 0 0 0 0 0 0
0 0 0 0 0 0 0 0 0 0 0 0 0 0 0 0 0 0 0 0 0 0
0 0 0 0 0 0 0 0 0 0 0 0 0 0 0 0 0 0 0 0 0 0
0 0 0 0 0 0 0 0 0 0 0 0 0 0 0 0 0 0 0 0 0 0
0 0 0 0 0 0 0 0 0 0 0 0 0 0 0 0 0 0 0 0 0 0
0 0 0 0 0 0 0 0 0 0 0 0 0 0 0 0 0 0 0 0 0 0
0 0 0 0 0 0 0 0 0 0 0 0 0 0 0 0 0 0 0 0 0 0
0 0 0 0 0 0 0 0 0 0 0 0 0 0 0 0 0 0 0 0 0 0
0 0 0 0 0 0 0 0 0 0 0 0 0 0 0 0 0 0 0 0 0 0
0 0 0 0 0 0 0 0 0 0 0 0 0 0 0 0 0 0 0 0 0 0
0 0 0 0 0 0 0 0 0 0 0 0 0 0 0 0 0 0 0 0 0 0
0 0 0 0 0 0 0 0 0 0 0 0 0 0 0 0 0 0 0 0 0 0
Wind_Speed_500mb
88 93 96 99 97 91 86 87 89 89 84 82 80 77 73 67 61 54 49 44 43 44
89 96 100 100 98 94 89 85 83 85 83 82 82 81 77 73 68 61 54 50 48 46
94 100 99 99 101 99 92 90 87 85 83 85 85 84 82 77 72 68 62 57 52 47
100 102 104 101 102 102 97 93 92 89 86 86 88 88 85 82 77 73 66 61 54 50
102 105 104 105 108 107 105 99 95 92 90 88 91 91 90 87 84 79 73 66 59 54
104 105 105 110 112 111 111 108 103 98 96 95 96 97 94 89 86 81 75 67 60 55
101 102 106 115 113 108 107 113 111 108 103 99 98 97 94 92 90 87 80 71 63 60
94 102 105 105 107 106 108 109 109 107 104 102 100 99 99 99 95 90 83 73 65 60
92 104 100 100 104 106 109 108 106 106 107 107 107 101 102 98 98 92 82 72 65 61
84 91 93 95 100 103 108 103 102 101 104 107 105 103 104 102 97 89 80 73 66 61
68 81 86 91 95 97 103 102 100 100 102 103 105 102 103 104 98 90 83 74 63 59
61 63 72 82 86 92 97 98 99 98 99 102 102 99 105 109 100 90 82 74 64 59
61 57 58 65 76 84 89 91 91 95 99 100 96 93 105 109 95 89 83 72 65 59
69 58 52 52 61 70 78 84 88 91 95 97 95 95 106 107 101 91 80 74 68 58
Wind_Direction_500mb
236 237 239 240 237 236 236 237 238 235 235 236 237 236 235 236 237 240 246 253 260 266
237 238 239 240 242 242 240 239 238 237 237 238 238 237 236 235 236 237 241 248 255 262
244 242 241 242 242 241 241 241 239 237 236 236 237 237 235 233 234 235 238 244 249 256
251 247 243 243 243 244 242 241 241 238 235 233 234 235 234 234 233 235 238 242 247 252
256 250 247 246 244 243 243 242 241 238 235 233 234 234 234 232 232 233 236 240 245 250
259 254 251 250 246 244 244 242 240 238 234 232 232 232 231 232 233 234 236 238 244 249
265 262 258 252 247 248 247 243 240 239 236 233 232 230 229 230 231 232 232 234 238 243
269 266 257 254 253 252 248 245 241 238 234 233 231 228 228 229 229 229 230 232 235 241
278 271 265 260 255 253 248 244 240 235 233 232 230 228 228 229 229 228 228 231 235 239
284 276 270 263 257 253 248 244 240 235 232 231 230 228 228 227 227 228 228 229 231 236
292 282 272 265 260 254 248 245 242 236 232 230 229 227 227 228 225 224 225 226 228 233
315 296 280 270 262 254 247 242 238 234 230 229 227 225 226 227 223 221 223 224 224 227
333 316 295 277 265 254 248 244 238 232 228 226 225 222 227 229 223 219 217 218 221 227
325 322 307 285 266 256 246 240 234 232 230 227 224 218 224 227 224 219 216 216 219 224
Wind_Speed_850mb
88 93 96 99 97 91 86 87 89 89 84 82 80 77 73 67 61 54 49 44 43 44
89 96 100 100 98 94 89 85 83 85 83 82 82 81 77 73 68 61 54 50 48 46
94 100 99 99 101 99 92 90 87 85 83 85 85 84 82 77 72 68 62 57 52 47
100 102 104 101 102 102 97 93 92 89 86 86 88 88 85 82 77 73 66 61 54 50
102 105 104 105 108 107 105 99 95 92 90 88 91 91 90 87 84 79 73 66 59 54
104 105 105 110 112 111 111 108 103 98 96 95 96 97 94 89 86 81 75 67 60 55
101 102 106 115 113 108 107 113 111 108 103 99 98 97 94 92 90 87 80 71 63 60
94 102 105 105 107 106 108 109 109 107 104 102 100 99 99 99 95 90 83 73 65 60
92 104 100 100 104 106 109 108 106 106 107 107 107 101 102 98 98 92 82 72 65 61
84 91 93 95 100 103 108 103 102 101 104 107 105 103 104 102 97 89 80 73 66 61
68 81 86 91 95 97 103 102 100 100 102 103 105 102 103 104 98 90 83 74 63 59
61 63 72 82 86 92 97 98 99 98 99 102 102 99 105 109 100 90 82 74 64 59
61 57 58 65 76 84 89 91 91 95 99 100 96 93 105 109 95 89 83 72 65 59
69 58 52 52 61 70 78 84 88 91 95 97 95 95 106 107 101 91 80 74 68 58
Wind_Direction_850mb
236 237 239 240 237 236 236 237 238 235 235 236 237 236 235 236 237 240 246 253 260 266
237 238 239 240 242 242 240 239 238 237 237 238 238 237 236 235 236 237 241 248 255 262
244 242 241 242 242 241 241 241 239 237 236 236 237 237 235 233 234 235 238 244 249 256
251 247 243 243 243 244 242 241 241 238 235 233 234 235 234 234 233 235 238 242 247 252
256 250 247 246 244 243 243 242 241 238 235 233 234 234 234 232 232 233 236 240 245 250
259 254 251 250 246 244 244 242 240 238 234 232 232 232 231 232 233 234 236 238 244 249
265 262 258 252 247 248 247 243 240 239 236 233 232 230 229 230 231 232 232 234 238 243
269 266 257 254 253 252 248 245 241 238 234 233 231 228 228 229 229 229 230 232 235 241
278 271 265 260 255 253 248 244 240 235 233 232 230 228 228 229 229 228 228 231 235 239
284 276 270 263 257 253 248 244 240 235 232 231 230 228 228 227 227 228 228 229 231 236
292 282 272 265 260 254 248 245 242 236 232 230 229 227 227 228 225 224 225 226 228 233
315 296 280 270 262 254 247 242 238 234 230 229 227 225 226 227 223 221 223 224 224 227
333 316 295 277 265 254 248 244 238 232 228 226 225 222 227 229 223 219 217 218 221 227
325 322 307 285 266 256 246 240 234 232 230 227 224 218 224 227 224 219 216 216 219 224